Content
SEND FEEDBACK

Daily
Averages
Monthly
Summary
United States of America

JACKSONVILLE, VERMONT


Home > North America > United States > Vermont
Elevation: 800 feet     Latitude: 42 44N     Longitude: 072 44W

WEATHER
 
SELECT A DAY
Number of Records: 197,655;   Date Range: 10/28/95 - 9/22/14
 
SHARE

PRINT THIS DATA

[ ← Previous Day ]
WEATHER ALMANAC - JUNE 8, 2014
[ Next Day → ]
[ °C ]   °F
Weather ElementAverageHighLow
Temperature66.1 °F82.9 °F (4:52 pm)50 °F (4:52 am)
Dewpoint53.6 °F59 °F (7:52 pm)48 °F (5:52 am)
Humidity68.8 %97 % (1:52 am)34 % (5:52 pm)
Barometer29.93 in29.98 in (1:52 am)29.86 in (5:52 pm)
Wind Speed1.2 mph6.9 mph (1:52 pm)
Weather ElementAverage
Visibility9.1 mi
Wind DirectionNNE (28.3 °)

Weather ElementTotal
Precipitation---
Cooling Degree Days1.5 (Base 65)
Growing Degree Days16.5 (Base 50)
Averaged from 23 records on June 8, 2014
WEATHER CONDITIONS BREAKOUT
WIND DIRECTION BREAKOUT
WEATHER BY HOUR - JUNE 8, 2014
[ °C ]   °F
Local TimeTemperatureDewpointHumidityBarometerVisibilityWind DirectionWind SpeedGust SpeedPrecipitationEventsConditions
1:52 AM54.0 °F53.1 °F97 %29.98 in10.0 miCalmClear
2:52 AM52.0 °F51.1 °F97 %29.97 in9.0 miCalmClear
3:52 AM51.1 °F50.0 °F96 %29.97 in9.0 miCalmClear
4:52 AM50.0 °F48.9 °F96 %29.97 in5.0 miCalmClear
5:50 AM50.0 °F48.2 °F94 %29.98 in2.5 miCalmClear
5:52 AM50.0 °F48.0 °F93 %29.98 in3.0 miCalmClear
6:52 AM55.0 °F53.1 °F93 %29.98 in10.0 miCalmClear
7:52 AM60.1 °F54.0 °F80 %29.98 in10.0 miCalmClear
8:52 AM66.0 °F55.0 °F68 %29.97 in10.0 miCalmClear
9:52 AM72.0 °F55.0 °F55 %29.96 in10.0 miCalmClear
10:52 AM75.9 °F55.9 °F50 %29.95 in10.0 miCalmClear
11:52 AM78.1 °F57.0 °F48 %29.95 in10.0 miNorth (350°)4.6 mphMostly Cloudy
12:52 PM80.1 °F51.1 °F36 %29.94 in10.0 miNorthClear
1:52 PM81.0 °F52.0 °F36 %29.91 in10.0 miVariable6.9 mphClear
2:52 PM81.0 °F52.0 °F36 %29.90 in10.0 miVariable4.6 mphClear
4:52 PM82.9 °F53.1 °F36 %29.88 in10.0 miCalmPartly Cloudy
5:52 PM80.1 °F48.9 °F34 %29.86 in10.0 miSW (220°)5.8 mphClear
6:52 PM75.0 °F57.9 °F55 %29.86 in10.0 miCalmClear
7:52 PM70.0 °F59.0 °F68 %29.88 in10.0 miCalmClear
8:52 PM66.0 °F59.0 °F78 %29.89 in10.0 miCalmClear
9:52 PM64.0 °F57.0 °F78 %29.90 in10.0 miCalmClear
10:52 PM63.0 °F57.0 °F81 %29.91 in10.0 miEast (80°)3.5 mphClear
11:52 PM63.0 °F55.9 °F78 %29.91 in10.0 miCalmClear
Hourly data recorded from KAQW, located miles away from Jacksonville, Vermont







STORIES FROM OUR PARTNERS